User: anonymous   Login
Location: Unspecified
(0.0000°N, 0.0000°E)
Time: 03:31:34
(UTC+00:00)
Language:

WGS 6 (USA 244) - Orbit

View from above orbital plane
View from above orbital plane
View from above satellite
View from above satellite

Ground track
Ground track

The orbit data is extracted from the following two-line orbital elements,

1 39222U 13041A   17170.36471264 0.00000000  00000-0  00000-0 0    09
2 39222   0.0200 263.8629 0003453   4.6298 355.3997  1.00270000    03
Epoch (UTC): 19 June 2017 08:45:11
Eccentricity: 0.0003453
inclination: 0.0200°
perigee height: 35772 km
apogee height: 35801 km
right ascension of ascending node: 263.8629°
argument of perigee: 4.6298°
revolutions per day: 1.00270000
mean anomaly at epoch: 355.3997°
orbit number at epoch: 0

The dashed part of the orbit path shows where the satellite is in the earth's shadow,  

DLR